Location: Glencliff
(36.1226°N, 86.7183°W)
Time: 03:49:35
(UTC+00:00)

MetOp-A - Pass Details

Date: 25 August 2019
Orbit: 820 x 821 km, 98.6° (Epoch: 14 October)

Event Time Altitude Azimuth Distance (km) Brightness Sun altitude
Exits shadow 02:36:27 39° 192° (SSW) 1,205 4.8 -24.7°
Maximum altitude 02:38:20 65° 258° (WSW) 901 4.4 -25.0°
Drops below altitude 10° 02:43:40 10° 341° (NNW) 2,423 7.3 -25.8°
Sets 02:46:03 0° 344° (NNW) 3,359 8.1 -26.2°
